Madison, SD

10:53 AM CDT on June 26, 2017 (GMT -0500)
Madison Municipal

Weather History for KMDS - January, 2012

Change the Weather History Date:

Monday, January 9, 2012

  Actual Average Record
Temperature  
Mean Temperature 37 °F -  
Max Temperature 50 °F 18 °F 50 °F (2012)
Min Temperature 24 °F 0 °F -11 °F (2016)
Degree Days  
Heating Degree Days 28    
Moisture  
Dew Point 26 °F    
Average Humidity 73    
Maximum Humidity 100    
Minimum Humidity 43    
Precipitation  
Precipitation 0.00 in - - ()
Sea Level Pressure  
Sea Level Pressure 30.00 in    
Wind  
Wind Speed 13 mph (West)    
Max Wind Speed 17 mph    
Max Gust Speed 23 mph    
Visibility 10 miles    
Events      
Averages and records for this station are not official NWS values.
T = Trace of Precipitation, MM = Missing Value Source: NWS Daily Summary

Daily Weather History Graph

Daily Weather History Graph

Search for Another Location

Airport or City:

Trip Planner

Search our weather history database for the weather conditions in past years. The results will help you decide how hot, cold, wet, or windy it might be!

Date:

Astronomy

Jan. 09, 2012 Rise Set
Actual Time 8:02 AM CST 5:08 PM CST
Civil Twilight 7:29 AM CST 5:41 PM CST
Nautical Twilight 6:53 AM CST 6:17 PM CST
Astronomical Twilight 6:19 AM CST 6:51 PM CST
Moon 5:58 PM CST (1/9) 8:01 AM CST (1/9)
Length of Visible Light 10h 11m
Length of Day
9h 06m
Full, 100% of the Moon is Illuminated
Jan 9
Full
Jan 16
Last Quarter
Jan 23
New
Jan 30
First Quarter
Feb 7
Full

Hourly Weather History & Observations

Time (CST) Temp. Windchill Dew Point Humidity Pressure Visibility Wind Dir Wind Speed Gust Speed Precip Events Conditions
12:10 AM 24.8 °F 14.6 °F 24.8 °F 100% 30.08 in 10.0 mi SW 10.4 mph - N/A   Clear
12:30 AM 26.6 °F 16.8 °F 26.6 °F 100% 30.06 in 10.0 mi SW 10.4 mph - N/A   Clear
1:10 AM 26.6 °F 15.7 °F 26.6 °F 100% 30.05 in 10.0 mi SW 12.7 mph - N/A   Clear
1:30 AM 26.6 °F 15.2 °F 26.6 °F 100% 30.04 in 10.0 mi SW 13.8 mph - N/A   Clear
1:50 AM 26.6 °F 16.2 °F 26.6 °F 100% 30.04 in 10.0 mi WSW 11.5 mph - N/A   Clear
2:10 AM 26.6 °F 15.2 °F 26.6 °F 100% 30.03 in 10.0 mi SW 13.8 mph - N/A   Clear
2:30 AM 26.6 °F 15.7 °F 26.6 °F 100% 30.03 in 10.0 mi WSW 12.7 mph - N/A   Clear
2:50 AM 26.6 °F 15.7 °F 26.6 °F 100% 30.03 in 10.0 mi WSW 12.7 mph - N/A   Clear
3:10 AM 26.6 °F 15.2 °F 26.6 °F 100% 30.02 in 10.0 mi SW 13.8 mph - N/A   Clear
3:30 AM 26.6 °F 15.2 °F 26.6 °F 100% 30.02 in 10.0 mi WSW 13.8 mph - N/A   Clear
3:50 AM 26.6 °F 15.7 °F 26.6 °F 100% 30.02 in 10.0 mi WSW 12.7 mph - N/A   Clear
4:10 AM 26.6 °F 15.2 °F 26.6 °F 100% 30.01 in 10.0 mi WSW 13.8 mph - N/A   Clear
4:30 AM 26.6 °F 15.2 °F 26.6 °F 100% 30.01 in 10.0 mi WSW 13.8 mph - N/A   Clear
4:50 AM 28.4 °F 17.0 °F 28.4 °F 100% 30.01 in 10.0 mi WSW 15.0 mph - N/A   Clear
5:10 AM 26.6 °F 14.7 °F 26.6 °F 100% 30.00 in 10.0 mi WSW 15.0 mph - N/A   Clear
5:30 AM 26.6 °F 14.7 °F 26.6 °F 100% 30.00 in 10.0 mi WSW 15.0 mph - N/A   Clear
5:50 AM 28.4 °F 16.6 °F 24.8 °F 86% 29.99 in 10.0 mi WSW 16.1 mph 21.9 mph N/A   Clear
6:10 AM 28.4 °F 16.2 °F 23.0 °F 80% 29.99 in 10.0 mi West 17.3 mph 23.0 mph N/A   Clear
6:30 AM 28.4 °F 16.6 °F 23.0 °F 80% 29.99 in 10.0 mi West 16.1 mph 20.7 mph N/A   Clear
6:50 AM 28.4 °F 17.0 °F 23.0 °F 80% 30.00 in 10.0 mi West 15.0 mph 20.7 mph N/A   Clear
7:10 AM 26.6 °F 15.7 °F 23.0 °F 86% 29.99 in 10.0 mi West 12.7 mph 20.7 mph N/A   Clear
7:30 AM 26.6 °F 15.2 °F 23.0 °F 86% 30.00 in 10.0 mi West 13.8 mph 19.6 mph N/A   Clear
7:50 AM 26.6 °F 15.7 °F 23.0 °F 86% 30.00 in 10.0 mi West 12.7 mph 19.6 mph N/A   Clear
8:10 AM 26.6 °F 15.2 °F 23.0 °F 86% 29.99 in 10.0 mi WSW 13.8 mph - N/A   Clear
8:30 AM 26.6 °F 15.7 °F 23.0 °F 86% 30.00 in 10.0 mi West 12.7 mph - N/A   Clear
8:50 AM 28.4 °F 16.6 °F 23.0 °F 80% 30.00 in 10.0 mi West 16.1 mph - N/A   Clear
9:10 AM 30.2 °F 19.3 °F 23.0 °F 75% 30.00 in 10.0 mi West 15.0 mph - N/A   Clear
9:30 AM 32.0 °F 21.6 °F 23.0 °F 69% 30.01 in 10.0 mi West 15.0 mph - N/A   Clear
10:10 AM 35.6 °F 25.5 °F 24.8 °F 65% 30.01 in 10.0 mi WNW 17.3 mph - N/A   Clear
10:30 AM 35.6 °F 25.5 °F 24.8 °F 65% 30.01 in 10.0 mi WNW 17.3 mph 23.0 mph N/A   Clear
10:50 AM 35.6 °F 25.9 °F 24.8 °F 65% 30.01 in 10.0 mi WNW 16.1 mph - N/A   Clear
11:10 AM 37.4 °F 28.5 °F 24.8 °F 60% 30.00 in 10.0 mi WNW 15.0 mph - N/A   Clear
11:30 AM 39.2 °F 31.2 °F 26.6 °F 61% 30.00 in 10.0 mi WNW 13.8 mph - N/A   Clear
11:50 AM 41.0 °F 34.3 °F 26.6 °F 57% 30.00 in 10.0 mi WNW 11.5 mph - N/A   Clear
12:10 PM 42.8 °F 35.4 °F 26.6 °F 53% 29.99 in 10.0 mi WNW 15.0 mph - N/A   Clear
12:30 PM 44.6 °F 38.1 °F 26.6 °F 49% 29.98 in 10.0 mi WNW 13.8 mph - N/A   Clear
12:50 PM 46.4 °F 40.7 °F 26.6 °F 46% 29.98 in 10.0 mi WNW 12.7 mph 18.4 mph N/A   Clear
1:10 PM 46.4 °F 41.9 °F 26.6 °F 46% 29.97 in 10.0 mi West 9.2 mph - N/A   Clear
1:30 PM 48.2 °F - 28.4 °F 46% 29.97 in 10.0 mi West 11.5 mph - N/A   Clear
1:50 PM 48.2 °F - 28.4 °F 46% 29.98 in 10.0 mi WNW 15.0 mph - N/A   Clear
2:10 PM 48.2 °F - 28.4 °F 46% 29.97 in 10.0 mi WNW 12.7 mph 19.6 mph N/A   Clear
2:30 PM 48.2 °F - 28.4 °F 46% 29.96 in 10.0 mi West 13.8 mph - N/A   Clear
2:50 PM 48.2 °F - 28.4 °F 46% 29.96 in 10.0 mi West 11.5 mph - N/A   Clear
3:10 PM 50.0 °F - 28.4 °F 43% 29.96 in 10.0 mi West 11.5 mph 17.3 mph N/A   Clear
3:30 PM 50.0 °F - 28.4 °F 43% 29.96 in 10.0 mi West 11.5 mph - N/A   Clear
3:50 PM 50.0 °F - 28.4 °F 43% 29.97 in 10.0 mi West 9.2 mph - N/A   Clear
4:10 PM 50.0 °F - 28.4 °F 43% 29.96 in 10.0 mi WSW 9.2 mph - N/A   Clear
4:30 PM 50.0 °F - 28.4 °F 43% 29.98 in 10.0 mi West 9.2 mph - N/A   Clear
4:50 PM 48.2 °F - 28.4 °F 46% 29.98 in 10.0 mi West 8.1 mph - N/A   Clear
5:10 PM 46.4 °F 42.4 °F 28.4 °F 50% 29.98 in 10.0 mi West 8.1 mph - N/A   Clear
5:30 PM 44.6 °F 40.2 °F 28.4 °F 53% 29.98 in 10.0 mi West 8.1 mph - N/A   Clear
5:50 PM 44.6 °F 39.7 °F 28.4 °F 53% 29.99 in 10.0 mi West 9.2 mph - N/A   Clear
6:10 PM 42.8 °F 38.6 °F 28.4 °F 57% 29.99 in 10.0 mi WNW 6.9 mph - N/A   Clear
6:30 PM 37.4 °F 32.8 °F 26.6 °F 65% 30.00 in 10.0 mi WNW 5.8 mph - N/A   Clear
6:50 PM 37.4 °F 32.1 °F 26.6 °F 65% 30.00 in 10.0 mi WNW 6.9 mph - N/A   Clear
7:10 PM 35.6 °F 30.7 °F 26.6 °F 70% 30.00 in 10.0 mi WNW 5.8 mph - N/A   Clear
7:30 PM 37.4 °F 34.9 °F 28.4 °F 70% 29.99 in 10.0 mi West 3.5 mph - N/A   Clear
7:50 PM 37.4 °F - 28.4 °F 70% 29.99 in 10.0 mi Calm Calm - N/A   Clear
8:10 PM 37.4 °F 34.9 °F 28.4 °F 70% 29.98 in 10.0 mi WSW 3.5 mph - N/A   Clear
8:30 PM 37.4 °F 33.8 °F 28.4 °F 70% 29.98 in 10.0 mi WSW 4.6 mph - N/A   Clear
8:50 PM 32.0 °F 24.8 °F 28.4 °F 87% 29.98 in 10.0 mi WSW 8.1 mph - N/A   Clear
9:10 PM 35.6 °F 28.0 °F 28.4 °F 75% 29.97 in 10.0 mi WSW 10.4 mph - N/A   Clear
9:30 PM 37.4 °F 30.8 °F 28.4 °F 70% 29.98 in 10.0 mi WSW 9.2 mph - N/A   Clear
9:50 PM 35.6 °F 28.6 °F 28.4 °F 75% 29.97 in 10.0 mi WSW 9.2 mph - N/A   Clear
10:10 PM 35.6 °F 29.2 °F 28.4 °F 75% 29.96 in 10.0 mi WSW 8.1 mph - N/A   Clear
10:30 PM 35.6 °F 30.7 °F 28.4 °F 75% 29.97 in 10.0 mi West 5.8 mph - N/A   Clear
10:50 PM 37.4 °F 33.8 °F 28.4 °F 70% 29.96 in 10.0 mi WSW 4.6 mph - N/A   Clear
11:10 PM 33.8 °F 28.6 °F 28.4 °F 81% 29.97 in 10.0 mi SW 5.8 mph - N/A   Clear
11:30 PM 32.0 °F 24.8 °F 28.4 °F 87% 29.97 in 10.0 mi West 8.1 mph - N/A   Clear
11:50 PM 32.0 °F 27.5 °F 28.4 °F 87% 29.98 in 10.0 mi West 4.6 mph - N/A   Clear